TimeCST,TemperatureF,Dew PointF,Humidity,Sea Level PressureIn,VisibilityMPH,Wind Direction,Wind SpeedMPH,Gust SpeedMPH,PrecipitationIn,Events,Conditions,WindDirDegrees,DateUTC
12:15 AM,66.2,64.4,94,29.83,9.0,SW,10.4,-,N/A,,Mostly Cloudy,230,2014-01-11 06:15:00
12:35 AM,66.2,64.4,94,29.83,8.0,SW,10.4,-,N/A,,Partly Cloudy,230,2014-01-11 06:35:00
12:55 AM,64.4,64.4,100,29.83,7.0,SW,12.7,-,N/A,,Clear,220,2014-01-11 06:55:00
1:15 AM,64.4,64.4,100,29.83,5.0,SW,6.9,-,N/A,,Mostly Cloudy,220,2014-01-11 07:15:00
1:35 AM,64.4,62.6,94,29.83,5.0,SW,8.1,-,N/A,,Mostly Cloudy,220,2014-01-11 07:35:00
1:55 AM,64.4,62.6,94,29.82,4.0,SW,5.8,-,N/A,,Mostly Cloudy,220,2014-01-11 07:55:00
2:15 AM,62.6,62.6,100,29.83,3.0,South,3.5,-,N/A,,Mostly Cloudy,180,2014-01-11 08:15:00
2:35 AM,62.6,62.6,100,29.83,2.0,SW,9.2,18.4,N/A,,Overcast,220,2014-01-11 08:35:00
3:35 AM,62.6,62.6,100,29.85,2.5,West,8.1,16.1,N/A,,Overcast,260,2014-01-11 09:35:00
3:55 AM,62.6,62.6,100,29.85,3.0,WSW,6.9,-,N/A,,Overcast,240,2014-01-11 09:55:00
4:15 AM,60.8,60.8,100,29.86,3.0,West,9.2,-,N/A,,Overcast,260,2014-01-11 10:15:00
4:35 AM,60.8,60.8,100,29.86,3.0,West,9.2,-,N/A,,Mostly Cloudy,260,2014-01-11 10:35:00
4:55 AM,59.0,59.0,100,29.87,3.0,WSW,6.9,-,N/A,,Mostly Cloudy,250,2014-01-11 10:55:00
5:15 AM,59.0,59.0,100,29.88,3.0,West,8.1,-,N/A,,Scattered Clouds,260,2014-01-11 11:15:00
5:35 AM,59.0,59.0,100,29.89,3.0,WSW,10.4,-,N/A,,Partly Cloudy,250,2014-01-11 11:35:00
5:55 AM,59.0,59.0,100,29.91,2.0,West,6.9,-,N/A,,Mostly Cloudy,270,2014-01-11 11:55:00
6:15 AM,59.0,59.0,100,29.91,4.0,West,12.7,-,N/A,,Partly Cloudy,260,2014-01-11 12:15:00
6:35 AM,59.0,59.0,100,29.91,5.0,WSW,13.8,-,N/A,,Clear,250,2014-01-11 12:35:00
6:55 AM,59.0,59.0,100,29.93,4.0,West,13.8,18.4,N/A,,Clear,260,2014-01-11 12:55:00
7:15 AM,57.2,57.2,100,29.94,3.0,West,8.1,-,N/A,,Clear,280,2014-01-11 13:15:00
7:55 AM,59.0,55.4,88,29.96,10.0,WNW,11.5,17.3,N/A,,Clear,300,2014-01-11 13:55:00
8:15 AM,59.0,53.6,82,29.98,10.0,WNW,13.8,20.7,N/A,,Clear,300,2014-01-11 14:15:00
8:35 AM,59.0,53.6,82,29.99,10.0,NW,9.2,-,N/A,,Clear,320,2014-01-11 14:35:00
8:55 AM,59.0,53.6,82,30.01,10.0,NW,11.5,-,N/A,,Clear,320,2014-01-11 14:55:00
9:35 AM,62.6,53.6,72,30.04,10.0,North,10.4,-,N/A,,Clear,350,2014-01-11 15:35:00
9:55 AM,62.6,51.8,68,30.05,10.0,North,8.1,-,N/A,,Clear,360,2014-01-11 15:55:00
10:15 AM,64.4,50.0,59,30.06,10.0,North,8.1,-,N/A,,Clear,350,2014-01-11 16:15:00
10:35 AM,66.2,46.4,49,30.06,10.0,North,8.1,-,N/A,,Clear,10,2014-01-11 16:35:00
10:55 AM,68.0,41.0,37,30.06,10.0,North,12.7,23.0,N/A,,Clear,10,2014-01-11 16:55:00
11:15 AM,68.0,39.2,35,30.06,10.0,North,11.5,20.7,N/A,,Clear,350,2014-01-11 17:15:00
11:35 AM,68.0,37.4,33,30.06,10.0,North,12.7,-,N/A,,Clear,360,2014-01-11 17:35:00
11:55 AM,68.0,37.4,33,30.06,10.0,NNW,12.7,18.4,N/A,,Clear,340,2014-01-11 17:55:00
12:15 PM,69.8,37.4,31,30.05,10.0,NNW,16.1,-,N/A,,Clear,340,2014-01-11 18:15:00
12:35 PM,69.8,35.6,28,30.04,10.0,North,11.5,18.4,N/A,,Clear,350,2014-01-11 18:35:00
12:55 PM,71.6,32.0,23,30.03,10.0,North,5.8,20.7,N/A,,Clear,350,2014-01-11 18:55:00
1:15 PM,71.6,33.8,25,30.02,10.0,NNW,10.4,16.1,N/A,,Clear,340,2014-01-11 19:15:00
1:35 PM,71.6,33.8,25,30.02,10.0,NNW,8.1,-,N/A,,Clear,340,2014-01-11 19:35:00
1:55 PM,73.4,32.0,22,30.02,10.0,NW,8.1,-,N/A,,Clear,320,2014-01-11 19:55:00
2:15 PM,73.4,32.0,22,30.02,10.0,NNW,9.2,19.6,N/A,,Clear,340,2014-01-11 20:15:00
2:35 PM,71.6,28.4,20,30.02,10.0,NNW,5.8,18.4,N/A,,Clear,340,2014-01-11 20:35:00
2:55 PM,73.4,32.0,22,30.02,10.0,NNW,5.8,-,N/A,,Clear,340,2014-01-11 20:55:00
3:15 PM,71.6,30.2,22,30.02,10.0,North,9.2,18.4,N/A,,Clear,350,2014-01-11 21:15:00
3:35 PM,71.6,32.0,23,30.02,10.0,NNW,5.8,-,N/A,,Clear,340,2014-01-11 21:35:00
3:55 PM,71.6,32.0,23,30.03,10.0,Calm,Calm,-,N/A,,Clear,0,2014-01-11 21:55:00
4:15 PM,71.6,28.4,20,30.03,10.0,North,6.9,16.1,N/A,,Clear,350,2014-01-11 22:15:00
4:35 PM,71.6,28.4,20,30.03,10.0,NNW,8.1,-,N/A,,Clear,340,2014-01-11 22:35:00
4:55 PM,71.6,28.4,20,30.04,10.0,North,4.6,-,N/A,,Clear,350,2014-01-11 22:55:00
5:15 PM,68.0,28.4,23,30.05,10.0,Calm,Calm,-,N/A,,Clear,0,2014-01-11 23:15:00
5:35 PM,68.0,26.6,21,30.05,9.0,Calm,Calm,-,N/A,,Clear,0,2014-01-11 23:35:00
5:55 PM,66.2,26.6,23,30.06,10.0,Calm,Calm,-,N/A,,Clear,0,2014-01-11 23:55:00
6:15 PM,66.2,26.6,23,30.06,9.0,Calm,Calm,-,N/A,,Clear,0,2014-01-12 00:15:00
6:35 PM,66.2,26.6,23,30.06,10.0,Calm,Calm,-,N/A,,Clear,0,2014-01-12 00:35:00
6:55 PM,64.4,26.6,24,30.07,9.0,Calm,Calm,-,N/A,,Clear,0,2014-01-12 00:55:00
7:15 PM,64.4,26.6,24,30.07,9.0,Calm,Calm,-,N/A,,Clear,0,2014-01-12 01:15:00
7:35 PM,64.4,28.4,26,30.08,8.0,Calm,Calm,-,N/A,,Clear,0,2014-01-12 01:35:00
7:55 PM,64.4,28.4,26,30.09,10.0,Calm,Calm,-,N/A,,Clear,0,2014-01-12 01:55:00
8:15 PM,64.4,26.6,24,30.10,10.0,Calm,Calm,-,N/A,,Clear,0,2014-01-12 02:15:00
8:35 PM,64.4,26.6,24,30.10,10.0,Calm,Calm,-,N/A,,Clear,0,2014-01-12 02:35:00
8:55 PM,64.4,26.6,24,30.11,10.0,Calm,Calm,-,N/A,,Clear,0,2014-01-12 02:55:00
9:15 PM,62.6,28.4,27,30.11,10.0,Calm,Calm,-,N/A,,Clear,0,2014-01-12 03:15:00
9:35 PM,62.6,26.6,26,30.11,10.0,Calm,Calm,-,N/A,,Clear,0,2014-01-12 03:35:00
9:55 PM,62.6,32.0,32,30.11,10.0,Calm,Calm,-,N/A,,Clear,0,2014-01-12 03:55:00
10:35 PM,62.6,30.2,30,30.11,10.0,Calm,Calm,-,N/A,,Clear,0,2014-01-12 04:35:00
10:55 PM,60.8,28.4,29,30.11,10.0,Calm,Calm,-,N/A,,Clear,0,2014-01-12 04:55:00
11:15 PM,62.6,28.4,27,30.10,10.0,Calm,Calm,-,N/A,,Clear,0,2014-01-12 05:15:00
11:35 PM,59.0,32.0,36,30.10,10.0,Calm,Calm,-,N/A,,Clear,0,2014-01-12 05:35:00
11:55 PM,59.0,32.0,36,30.10,10.0,Calm,Calm,-,N/A,,Clear,0,2014-01-12 05:55:00